DELTA 1 DEB

Satellite information

Favourite Embed

Satellite Type and Status

DEBRISIN ORBIT

Key statistics

Satellite DELTA 1 DEB at a glance.

Uptime

17352

Days in orbit

Revolutions

≈ 14.3

Per day

Orbit

SSO

Sun Synchronous Orbit

Inclination

99.2

Latest

Satellite identification and parameters

Extended collection of information and parameters for DELTA 1 DEB.

Object identification

Identified? True

Debris? True

Object name: DELTA 1 DEB

International designator: 1978-026HW

Object number (NORAD): 37635

Object ID (CCSDS): 37635

Country: UNITED STATES OF AMERICA (US)

Current information (Y/N): Y

RCS size: SMALL

Orbital parameters

Period: 101.006 minutes

Inclination: 99.1927 deg

SMA: 7184.439 km

Apoapsis: 840.699 km

Periapsis: 771.909 km

RAAN: 253.1722 deg

Eccentricy: 0.00478749

Argument of periapsis: 171.282 deg

Mean anomaly: 210.5372 deg

Mean motion: 14.25651826 rev/day

Mean motion (dot): 0.00002242 rev/day2

B* drag term: 0.00095431423 1/REarth

Two-line elements (TLE)

Creation date: Sept. 4, 2025, 10:13 a.m.

Reference frame: TEME

Reference center: EARTH

Epoch: Sept. 4, 2025, 6:34 a.m. UTC

TLE line 0: 0 DELTA 1 DEB

TLE line 1: 1 37635U 78026HW 25247.27363922 .00002242 00000-0 95431-3 0 9996

TLE line 2: 2 37635 99.1927 253.1722 0047875 171.2820 210.5372 14.25651826631052

Live tracking on map

Real-time ground track for satellite DELTA 1 DEB.

In-orbit conjunctions

A list of the most updated potential collisions computed for object DELTA 1 DEB.

Target Orbit TCA Probability of collision Miss distance Type
SL-3 DEB LEO 2024-11-13 14:22:18 0.0002831181 515.0 (m) DEBRIS
CZ-6A DEB LEO 2024-11-02 19:35:22 0.0001230671 535.0 (m) DEBRIS
SL-16 DEB LEO 2024-09-20 08:43:25 0.0001286817 182.0 (m) DEBRIS

Associated space launch

Earth observation satellite

DELTA 1 DEB was lifted into orbit during the mission ‘Delta 2910 | Landsat 3’, on board a Delta 2910 space rocket.

The launch took place on March 5, 1978, 5:54 p.m. from Space Launch Complex 2W.

For more information about the launch, click the button.

Launch to space Delta 2910 | Landsat 3
Delta 2910 | Landsat 3

Agency: N/A

Status: Launch Successful

Launch date: March 5, 1978, 5:54 p.m. UTC

Rocket: Delta 2910

Launch pad: Space Launch Complex 2W

Location: Vandenberg SFB, CA, USA

...

Latest news about this satellite

There are no fresh news available about this satellite. Check back as we update our databases every day.


Newsletter sign-up

Weekly statistics, charts and insights to help you stay on top of the space industry.